This demonstration page uses our WeatherBlox Daily Observations layout. Learn more.

39.51506, -84.39828

Hourly Observations for October 22, 2019

Temp ( °F °C ) Dew Point ( °F °C ) Humidity (%) Winds ( mph kmh ) Pressure ( in mb ) Visibility ( mi km ) Precip ( " mm )
12:15 am 00:15 Mostly Cloudy 62 16.7 57 14.1 85 85 SSW 15 24 29.77 1008 10 16.0934 0 0
12:35 am 00:35 Partly Cloudy 62 16.5 57 14.1 86 86 SSW 10 17 29.77 1008 10 16.0934 0 0
12:55 am 00:55 Partly Cloudy 62 16.6 57 14 85 85 SSW 12 19 29.77 1008 10 16.0934 0 0
1:15 am 01:15 Partly Cloudy 62 16.5 57 13.9 85 85 SSW 12 19 29.77 1008 10 16.0934 0 0
1:35 am 01:35 Mostly Cloudy 61 16.2 57 13.7 85 85 SW 12 19 29.77 1008 10 16.0934 0 0
1:55 am 01:55 Partly Cloudy 60 15.6 56 13.5 87 87 SW 10 17 29.77 1008 10 16.0934 0 0
2:15 am 02:15 Clear 60 15.4 56 13.4 88 88 SW 12 19 29.77 1008 10 16.0934 0 0
2:35 am 02:35 Clear 59 15 56 13.2 89 89 SSW 8 13 29.77 1008 10 16.0934 0 0
2:55 am 02:55 Clear 58 14.5 55 13 91 91 SW 7 11 29.77 1008 10 16.0934 0 0
3:15 am 03:15 Partly Cloudy 57 13.8 55 12.6 93 93 SW 6 9 29.77 1008 10 16.0934 0 0
3:35 am 03:35 Partly Cloudy 57 13.7 55 12.7 94 94 SW 7 11 29.77 1008 10 16.0934 0 0
3:55 am 03:55 Clear 56 13.5 55 12.5 94 94 SW 7 11 29.77 1008 10 16.0934 0 0
4:15 am 04:15 Partly Cloudy 56 13.5 55 12.6 94 94 SW 8 13 29.77 1008 10 16.0934 0 0
4:35 am 04:35 Mostly Cloudy 56 13.6 55 12.9 96 96 WSW 3 6 29.74 1007 10 16.0934 0 0
4:55 am 04:55 Clear 55 12.6 53 11.8 95 95 SW 6 9 29.77 1008 10 16.0934 0 0
5:15 am 05:15 Clear 55 12.6 53 11.6 94 94 SSW 7 11 29.8 1009 10 16.0934 0 0
5:35 am 05:35 Clear 54 12.4 53 11.7 96 96 SSW 6 9 29.8 1009 10 16.0934 0 0
5:55 am 05:55 Clear 53 11.8 52 11.3 97 97 SSW 3 6 29.8 1009 10 16.0934 0 0
6:15 am 06:15 Clear 52 11.2 51 10.7 97 97 SSW 6 9 29.8 1009 10 16.0934 0 0
6:35 am 06:35 Clear 53 11.4 51 10.7 96 96 SSW 7 11 29.8 1009 10 16.0934 0 0
6:55 am 06:55 Clear 52 10.9 51 10.6 98 98 SW 5 7 29.8 1009 10 16.0934 0 0
7:15 am 07:15 Clear 49 9.6 49 9.2 97 97 SSW 5 7 29.8 1009 10 16.0934 0 0
7:35 am 07:35 Clear 51 10.8 50 10 95 95 SSW 7 11 29.8 1009 10 16.0934 0 0
7:55 am 07:55 Sunny 53 11.6 50 10 90 90 S 7 11 29.8 1009 10 16.0934 0 0
8:15 am 08:15 Sunny 53 11.9 50 10.2 89 89 SSW 8 13 29.8 1009 10 16.0934 0 0
8:35 am 08:35 Sunny 54 12 51 10.5 91 91 SW 8 13 29.8 1009 10 16.0934 0 0
8:55 am 08:55 Sunny 55 12.8 51 10.5 86 86 SW 9 15 29.8 1009 10 16.0934 0 0
9:15 am 09:15 Sunny 56 13.3 50 10.2 82 82 SW 15 24 29.83 1010 10 16.0934 0 0
9:35 am 09:35 Sunny 55 12.8 47 8.5 75 75 SW 20 31 29.83 1010 10 16.0934 0 0
9:55 am 09:55 Sunny 56 13.4 47 8.1 71 71 SW 21 33 29.83 1010 10 16.0934 0 0
10:15 am 10:15 Sunny 56 13.6 44 6.9 64 64 WSW 20 31 29.8 1009 10 16.0934 0 0
10:35 am 10:35 Sunny 57 14 44 6.4 60 60 SW 18 30 29.8 1009 10 16.0934 0 0
10:55 am 10:55 Sunny 58 14.4 44 6.4 59 59 WSW 17 28 29.8 1009 10 16.0934 0 0
11:15 am 11:15 Sunny 56 13.6 42 5.8 60 60 SW 20 31 29.8 1009 10 16.0934 0 0
11:35 am 11:35 Mostly Cloudy 60 15.4 43 6.2 54 54 WSW 16 26 29.8 1009 10 16.0934 0 0
11:55 am 11:55 Partly Cloudy 58 14.5 41 5.2 54 54 SW 21 33 29.8 1009 10 16.0934 0 0
12:15 pm 12:15 Mostly Cloudy 59 14.9 41 5.1 52 52 WSW 22 35 29.83 1010 10 16.0934 0 0
12:35 pm 12:35 Sunny 60 15.3 41 5 50 50 SW 20 31 29.83 1010 10 16.0934 0 0
12:55 pm 12:55 Partly Cloudy 60 15.7 41 4.9 49 49 SW 23 37 29.8 1009 10 16.0934 0 0
1:15 pm 13:15 Partly Cloudy 60 15.4 41 5 50 50 SW 22 35 29.8 1009 10 16.0934 0 0
1:35 pm 13:35 Mostly Cloudy 62 16.5 41 4.9 46 46 SW 23 37 29.8 1009 10 16.0934 0 0
1:55 pm 13:55 Partly Cloudy 62 16.6 41 4.8 46 46 WSW 23 37 29.8 1009 10 16.0934 0 0
2:15 pm 14:15 Mostly Cloudy 62 16.8 40 4.7 45 45 SW 20 31 29.8 1009 10 16.0934 0 0
2:35 pm 14:35 Partly Cloudy 60 15.7 40 4.2 47 47 WSW 20 31 29.8 1009 10 16.0934 0 0
2:55 pm 14:55 Mostly Cloudy 61 15.9 40 4.3 46 46 WSW 21 33 29.8 1009 10 16.0934 0 0
3:15 pm 15:15 Mostly Cloudy 63 17 39 4 42 42 WSW 22 35 29.8 1009 10 16.0934 0 0
3:35 pm 15:35 Mostly Cloudy 61 15.9 40 4.2 46 46 WSW 15 24 29.8 1009 10 16.0934 0 0
3:55 pm 15:55 Mostly Cloudy 60 15.7 39 3.8 45 45 WSW 16 26 29.8 1009 10 16.0934 0 0
4:15 pm 16:15 Mostly Cloudy 62 16.5 39 3.7 43 43 WSW 18 30 29.83 1010 10 16.0934 0 0
4:35 pm 16:35 Mostly Cloudy 61 16.2 38 3.5 43 43 WSW 15 24 29.83 1010 10 16.0934 0 0
4:55 pm 16:55 Mostly Cloudy 61 15.9 39 3.7 44 44 SW 16 26 29.83 1010 10 16.0934 0 0
5:15 pm 17:15 Mostly Cloudy 60 15.4 38 3.4 45 45 WSW 15 24 29.83 1010 10 16.0934 0 0
5:35 pm 17:35 Partly Cloudy 60 15.4 38 3.2 44 44 WSW 17 28 29.83 1010 10 16.0934 0 0
5:55 pm 17:55 Mostly Cloudy 59 15.1 38 3.5 46 46 WSW 14 22 29.83 1010 10 16.0934 0 0
6:15 pm 18:15 Mostly Cloudy 58 14.6 39 3.7 48 48 SW 14 22 29.83 1010 10 16.0934 0 0
6:35 pm 18:35 Partly Cloudy 58 14.3 39 3.9 50 50 SW 10 17 29.83 1010 10 16.0934 0 0
6:55 pm 18:55 Mostly Cloudy 57 13.9 39 4 52 52 SW 12 19 29.83 1010 10 16.0934 0 0
7:15 pm 19:15 Mostly Cloudy 57 13.7 40 4.2 53 53 SW 8 13 29.88 1012 10 16.0934 0 0
7:35 pm 19:35 Mostly Cloudy 56 13.1 39 4.1 55 55 SW 9 15 29.88 1012 10 16.0934 0 0
7:55 pm 19:55 Cloudy 55 12.7 40 4.4 57 57 SW 6 9 29.88 1012 10 16.0934 0 0
8:15 pm 20:15 Mostly Cloudy 54 12.2 40 4.5 60 60 SW 6 9 29.91 1013 10 16.0934 0 0
8:35 pm 20:35 Mostly Cloudy 54 12.1 40 4.5 60 60 WSW 7 11 29.91 1013 10 16.0934 0 0
8:55 pm 20:55 Partly Cloudy 52 11.1 40 4.4 64 64 SW 7 11 29.91 1013 10 16.0934 0 0
9:15 pm 21:15 Clear 51 10.7 40 4.4 65 65 SW 7 11 29.91 1013 10 16.0934 0 0
9:35 pm 21:35 Partly Cloudy 51 10.7 40 4.4 65 65 WSW 5 7 29.94 1014 10 16.0934 0 0
9:55 pm 21:55 Mostly Cloudy 51 10.6 40 4.5 66 66 SW 6 9 29.94 1014 10 16.0934 0 0
10:15 pm 22:15 Clear 50 10.1 40 4.6 69 69 SW 6 9 29.94 1014 10 16.0934 0 0
10:35 pm 22:35 Clear 46 7.7 39 3.9 77 77 SSW 5 7 29.94 1014 10 16.0934 0 0
10:55 pm 22:55 Clear 46 7.7 41 5.2 84 84 SSW 3 6 29.94 1014 10 16.0934 0 0
11:15 pm 23:15 Clear 43 6.2 40 4.5 89 89 SW 3 6 29.94 1014 10 16.0934 0 0
11:35 pm 23:35 Clear 45 7.3 42 5.7 90 90 SW 6 9 29.94 1014 10 16.0934 0 0
11:55 pm 23:55 Clear 46 8 41 5.2 83 83 SW 5 7 29.94 1014 10 16.0934 0 0

Powered by AerisWeather